Regional Weather Roundup
Issued by NWS

Home | Current Version | Previous Version | Graphics & Text | Print | Product List | Glossary Off
Versions: 1 2 3 4 5 6 7 8 9 10 11 12 13 14 15 16 17 18 19 20 21 22 23 24 25 26 27 28 29 30 31 32 33 34 35 36 37 38 39 40 41 42 43 44 45 46 47 48 49 50

000
ASUS43 KMKX 071500
RWRWI

WISCONSIN REGIONAL WEATHER ROUNDUP
NATIONAL WEATHER SERVICE MILWAUKEE/SULLIVAN WI
900 AM CST WED DEC 07 2016

NOTE: "FAIR" INDICATES FEW OR NO CLOUDS BELOW 12,000 FEET WITH NO
SIGNIFICANT WEATHER AND/OR OBSTRUCTIONS TO VISIBILITY.

WIZ001-002-006>008-014>016-023>028-071600-
NORTHWEST WISCONSIN

CITY           SKY/WX    TMP DP  RH WIND       PRES   REMARKS
SUPERIOR ARPT  CLOUDY    18  11  74 W20       29.81R WCI   2
ASHLAND        LGT SNOW  18  12  77 SW22G30   29.78R WCI   1
HAYWARD        LGT SNOW  15   9  76 SW14G26   29.83R WCI   0
SIREN          FLURRIES  17  10  73 W16G25    29.89R WCI   1
CUMBERLAND     FLURRIES  18  10  73 W23       29.88R WCI   0
RICE LAKE      FLURRIES  17  11  76 SW12G20   29.91R WCI   4
CHETEK         FLURRIES  17  10  76 MISG      29.91R
LADYSMITH      LGT SNOW  18  12  77 SW15G25   29.88R WCI   4
EAU CLAIRE     LGT SNOW  16  10  77 W16G25    29.94F WCI   1
MENOMONIE      FLURRIES  18  12  77 SW15G22   29.95F WCI   3
NEW RICHMOND   FLURRIES  18  11  73 W23       29.94R WCI   0
OSCEOLA        CLOUDY    18  10  71 W15G25    29.98R WCI   4
$$

WIZ003>005-009-010-017-018-071600-
NORTH CENTRAL WISCONSIN

CITY           SKY/WX    TMP DP  RH WIND       PRES   REMARKS
MANITOWISH WTR LGT SNOW  15  11  84 SW17      29.74R WCI  -2
ARBOR VITAE    LGT SNOW  18  12  77 W18G26    29.76R WCI   2
WOODRUFF       LGT SNOW  18  12  77 W18G26    29.76R WCI   2
RHINELANDER    NOT AVBL
EAGLE RIVER    LGT SNOW  17  11  78 W21G30    29.74R WCI   0
LAND O LAKES   LGT SNOW  18  13  80 SW17G24   29.73R WCI   3
PHILLIPS       LGT SNOW  15  11  84 SW13G22   29.80R WCI   1
TOMAHAWK       LGT SNOW  16  10  80 SW7       29.82S WCI   6
MEDFORD        LGT SNOW  14   9  79 SW16G24   29.86R WCI  -2
MERRILL        LGT SNOW  16  11  80 W20G29    29.86S WCI   0
$$

WIZ029-030-035-036-043>047-071600-
CENTRAL WISCONSIN

CITY           SKY/WX    TMP DP  RH WIND       PRES   REMARKS
WAUSAU         NOT AVBL
MOSINEE        NOT AVBL
MARSHFIELD     NOT AVBL
STEVENS POINT  FLURRIES  16  10  79 W13G20    29.93R WCI   2
WAUPACA        CLOUDY    22  14  72 W14G25    29.95R WCI   9
WAUTOMA        NOT AVBL
WISC RAPIDS    NOT AVBL
CAMP DOUGLAS   NOT AVBL
$$

WIZ011>013-019>022-031-037>040-048>050-071600-
NORTHEAST WISCONSIN

CITY           SKY/WX    TMP DP  RH WIND       PRES   REMARKS
ANTIGO         LGT SNOW  15  11  82 W16G26    29.83S WCI   0
SHAWANO        CLOUDY    22  14  69 W16G26    29.90R WCI   9
OCONTO         CLOUDY    22  13  67 W20G26    29.89R WCI   7
STURGEON BAY   NOT AVBL
GREEN BAY      NOT AVBL
MANITOWOC      PTSUNNY   23  16  74 MISG      29.93R
APPLETON       CLOUDY    19  12  73 W16G24    29.92R WCI   5
CLINTONVILLE   FLURRIES  21  12  68 W16G22    29.91R WCI   7
OSHKOSH        MOSUNNY   20  12  71 W14G25    29.95S WCI   7
$$

WIZ032>034-041-042-053>061-071600-
SOUTHWEST WISCONSIN

CITY           SKY/WX    TMP DP  RH WIND       PRES   REMARKS
LA CROSSE      NOT AVBL
SPARTA         CLOUDY    18  12  78 W13G18    30.02S WCI   5
VIROQUA        CLOUDY    14   9  80 W15G22    30.02R WCI  -1
BOSCOBEL       NOT AVBL
PRAIRIE DU CHI PTSUNNY   17   9  71 W8        30.11S WCI   7
PLATTEVILLE    CLOUDY    18  13  80 W14       30.08R WCI   4
$$

WIZ056-057-062-063-064-067-068-071600-
SOUTH CENTRAL WISCONSIN

CITY           SKY/WX    TMP DP  RH WIND       PRES   REMARKS
REEDSBURG      CLOUDY    17  12  79 W13       30.02R WCI   4
BARABOO/DELLS  MOSUNNY   17  11  77 W13       30.01R WCI   4
LONE ROCK      NOT AVBL
MINERAL POINT  CLOUDY    19  14  79 W18       30.04R WCI   4
MADISON        NOT AVBL
MIDDLETON      NOT AVBL
WATERTOWN      CLOUDY    20  15  81 SW12G18   30.01S WCI   8
MONROE         MOSUNNY   19  16  86 W15       30.04S WCI   5
JANESVILLE     NOT AVBL
$$

WIZ051-052-058>065-066-070>072-071600-
SOUTHEAST WISCONSIN

CITY           SKY/WX    TMP DP  RH WIND       PRES   REMARKS
MILWAUKEE      NOT AVBL
WAUKESHA       SUNNY     19  14  79 SW16G29   30.01R WCI   5
MILWAUKEE/TIMM SUNNY     21  14  73 W15       30.01R WCI   8
RACINE         NOT AVBL
BURLINGTON     MOSUNNY   21  16  79 W12G18    30.03S WCI   9
KENOSHA        NOT AVBL
FOND DU LAC    NOT AVBL
SHEBOYGAN      NOT AVBL
WEST BEND      SUNNY     21  18  86 W14G21    29.97R WCI   8
JUNEAU         CLOUDY    19  13  79 SW15      30.01R WCI   4
$$

LSZ147-162-071600-
LAKE SUPERIOR

STATION/POSITION TIME  TEMP    WIND        PRES    WAVE
                       AIR SEA DIR/SP/G            HT/PER
                 (UTC) (F)     (DEG/KT/KT) (MB)    (FT/S)
DEVILS ISLAND    1400   25     250/ 36/ 44 1006.1R
PORT WING        1430   20     220/ 17/ 25 1008.5R
SAXON HARBOR     1440   20     210/ 13/ 19 1008.5R
$$

LMZ867-665-643>646-071600-
LAKE MICHIGAN

STATION/POSITION TIME  TEMP    WIND        PRES    WAVE
                       AIR SEA DIR/SP/G            HT/PER
                 (UTC) (F)     (DEG/KT/KT) (MB)    (FT/S)
CHAMBERS ISLAND  1440   24     220/ 11/ 21 1010.2S
NORTHPORT PIER   1440   25     220/  9/ 19 1010.5R
SISTER BAY       1354   27     280/ 25/ 28   N/A
KEWAUNEE LAKESHO 1430   22     290/ 16/ 33 1012.2F
SHEBOYGAN LAKESH 1400   24     260/ 12/ 15 1014.8R
PORT WASHINGTON  1430   24     270/ 10/ 18 1016.3R
MILWAUKEE LAKESH 1430   24     260/ 13/ 15   N/A
KENOSHA   LAKESH 1400   24     250/ 14/ 20 1017.3
$$

TC  - TEMPERATURE IN CELSIUS
VSB - VISIBILITY IN STATUTE MILES
WCI - WIND CHILL INDEX
HX  - HEAT INDEX




USA.gov is the U.S. government's official web portal to all federal, state and local government web resources and services.